This demonstration page uses our WeatherBlox Daily Observations layout. Learn more.

Left ArrowRight Arrow

38.83388, -104.82136

Hourly Observations for April 8, 2022

Temp ( °F °C ) Dew Point ( °F °C ) Humidity (%) Winds ( mph kmh ) Pressure ( in mb ) Visibility ( mi km ) Precip ( " mm )
12:58 am 00:58 Clear 34 1.1 6 -14.6 30 30 WSW 12 19 30.34 1028 10 16 0.00 0.00
1:58 am 01:58 Clear 33 0.3 7 -14.1 33 33 W 8 13 30.05 1018 10 16 0.00 0.00
2:58 am 02:58 Clear 32 0 7 -14 34 34 W 7 11 30.04 1017 10 16 0.00 0.00
3:58 am 03:58 Clear 32 -0.2 6 -14.2 34 34 E 5 7 30.02 1017 10 16 0.00 0.00
4:58 am 04:58 Clear 31 -0.7 7 -13.9 36 36 ESE 5 7 30.03 1017 10 16 0.00 0.00
5:58 am 05:58 Clear 31 -0.5 7 -14.1 35 35 ESE 8 13 30.03 1017 10 16 0.00 0.00
6:58 am 06:58 Sunny 31 -0.4 7 -13.7 36 36 Calm 30.05 1018 10 16 0.00 0.00
7:58 am 07:58 Sunny 35 1.4 8 -13.5 32 32 Calm 30.11 1020 10 16 0.00 0.00
8:58 am 08:58 Sunny 40 4.7 10 -12.3 28 28 E 5 7 30.11 1020 10 16 0.00 0.00
9:58 am 09:58 Sunny 45 7.3 8 -13.6 21 21 WNW 3 6 30.13 1020 10 16 0.00 0.00
10:58 am 10:58 Sunny 48 8.7 7 -13.7 19 19 Calm 30.11 1020 10 16 0.00 0.00
11:58 am 11:58 Sunny 53 11.5 10 -12 18 18 ENE 9 15 30.11 1020 10 16 0.00 0.00
12:58 pm 12:58 Sunny 53 11.7 9 -12.6 17 17 SE 10 17 30.11 1020 10 16 0.00 0.00
1:58 pm 13:58 Sunny 58 14.2 10 -12.1 15 15 E 13 20 30.09 1019 10 16 0.00 0.00
2:58 pm 14:58 Sunny 57 14 8 -13.1 14 14 ESE 6 9 30.07 1018 10 16 0.00 0.00
4:58 pm 16:58 Sunny 56 13.4 8 -13.6 14 14 E 12 19 29.97 1015 10 16 0.00 0.00
5:58 pm 17:58 Sunny 55 12.5 8 -13.5 15 15 E 12 19 29.93 1014 10 16 0.00 0.00
6:58 pm 18:58 Sunny 53 11.8 8 -13.2 16 16 SE 12 19 29.92 1013 10 16 0.00 0.00
7:58 pm 19:58 Clear 53 11.8 10 -12.5 17 17 SSE 15 24 29.89 1012 10 16 0.00 0.00
8:58 pm 20:58 Clear 50 9.8 12 -10.9 22 22 WSW 6 9 29.86 1011 10 16 0.00 0.00
9:58 pm 21:58 Clear 48 8.7 13 -10.8 24 24 SW 5 7 29.83 1010 10 16 0.00 0.00
10:58 pm 22:58 Clear 48 8.9 12 -11.1 23 23 WSW 5 7 29.80 1009 10 16 0.00 0.00
11:58 pm 23:58 Clear 46 7.5 13 -10.3 27 27 WSW 5 7 29.75 1008 10 16 0.00 0.00

Powered by AerisWeather